Flag for Australia Weather past 2 weeks in Lord Howe Island, Lord Howe Island, Australia

Now
66 °F

Overcast.


Feels Like: 66 °F
Forecast: 66 / 69 °F
Wind: 12 mph from Northeast

Location: Lord Howe Island

Current Time: May 31, 2015 at 7:47:21 AM

Latest Report: May 31, 2015 at 6:00 AM


Visibility: 13 mi

Pressure: 30.04 "Hg

Humidity: 86%

Dew point: 62 °F

Location of Lord Howe IslandLocation

Historic Weather in Lord Howe Island — Graph

°F

Lord Howe Island temperature yesterday

Maximum temperature yesterday: 70 °F (at 12:00 PM)
Minimum temperature yesterday: 58 °F (at 6:00 AM)
Average temperature yesterday: 66 °F

Past Weeks' High & Low Weather Summary

 TemperatureHumidityPressure
High74 °F (May 21, 1:30 PM)95% (May 30, 6:00 AM)30.48 "Hg (May 30, 6:00 AM)
Low54 °F (May 28, 4:30 AM)46% (May 16, 3:00 PM)29.72 "Hg (May 22, 4:30 PM)
Average66 °F71%30.21 "Hg
* Reported May 16 6:00 AM — May 31 6:00 AM, Lord Howe Island, Weather by CustomWeather, © 2015

Note: Actual official high and low records may vary slightly from our data, if they occured in-between our weather recording intervals... More about our weather records

Advertising

Lord Howe Island weather history for previous 24 hours

 ConditionsComfort  
Time TempWeatherWind HumidityBarometerVisibility
6:00 AM
Sun, May 31
66 °FOvercast.12 mph86%30.04 "Hg12 mi
4:30 AM67 °FMild.9 mph77%30.03 "HgN/A
3:00 AM67 °FPassing clouds.7 mph75%30.06 "HgN/A
1:30 AM67 °FMild.10 mph76%30.08 "HgN/A
12:00 AM67 °FOvercast.8 mph74%30.09 "HgN/A
10:30 PM
Sat, May 30
66 °FMild.8 mph73%30.11 "HgN/A
9:00 PM65 °FMild.6 mph72%30.12 "HgN/A
7:30 PM63 °FMild.6 mph78%30.13 "HgN/A
6:00 PM65 °FPassing clouds.5 mph72%30.11 "HgN/A
4:30 PM67 °FMild.6 mph71%30.10 "HgN/A
3:00 PM68 °FOvercast.8 mph66%30.08 "Hg12 mi
1:30 PM70 °FMild.6 mph65%30.10 "HgN/A
12:00 PM70 °FScattered clouds.5 mph66%30.14 "HgN/A
10:30 AM69 °FMild.6 mph65%30.17 "HgN/A
9:00 AM67 °FPartly sunny.No wind74%30.16 "Hg16 mi
7:30 AM64 °FMild.6 mph86%30.15 "HgN/A
Weather by CustomWeather, © 2015

See weather overviewHow to use our weather pages